Regional Weather Roundup
Issued by NWS

Home | Current Version | Previous Version | Text Only | Print | Product List | Glossary On
Versions: 1 2 3 4 5 6 7 8 9 10 11 12 13 14 15 16 17 18 19 20 21 22 23 24 25 26 27 28 29 30 31 32 33 34 35 36 37 38 39 40 41 42 43 44 45 46 47 48 49 50
000
ASUS43 KLSX 181207
RWRMO

WEATHER SUMMARY FOR MISSOURI
NATIONAL WEATHER SERVICE SPRINGFIELD MO
700 AM CDT FRI AUG 18 2017

NOTE: "FAIR" INDICATES FEW OR NO CLOUDS BELOW 12,000 FEET WITH NO
       SIGNIFICANT WEATHER AND/OR OBSTRUCTIONS TO VISIBILITY.
       CURRENT SKY AND/OR WEATHER CONDITIONS ARE NOT AVAILABLE FOR
       CHILLICOTHE AND FARMINGTON.

MOZ001>031-035>038-043-044-053-054-181300-
...NORTHERN AND WESTERN MISSOURI...

CITY           SKY/WX    TMP DP  RH WIND       PRES   REMARKS
KANSAS CTY INT MOCLDY    63  60  90 S7        29.96R
6HR MIN TEMP:  62; 6HR MAX TEMP:  68;

KANSAS C DTWN  PTCLDY    70  62  76 CALM      29.95R
6HR MIN TEMP:  67; 6HR MAX TEMP:  73;

LEE`S SUMMIT   PTCLDY    65  61  87 SW7       29.98R
6HR MIN TEMP:  65; 6HR MAX TEMP:  70;

ST JOSEPH      MOCLDY    60  60 100 CALM      29.95S FOG
6HR MIN TEMP:  57; 6HR MAX TEMP:  62;

CHILLICOTHE      N/A     60  60 100 CALM      29.97R
6HR MIN TEMP:  58; 6HR MAX TEMP:  62;

KIRKSVILLE     PTCLDY    59  58  96 SW3       29.96R
6HR MIN TEMP:  58; 6HR MAX TEMP:  65;


$$
MOZ066>068-077>081-088>096-101>105-181300-
...SOUTHWEST MISSOURI...

CITY           SKY/WX    TMP DP  RH WIND       PRES   REMARKS
SPRINGFIELD    CLEAR     61  59  93 SE7       30.01R
6HR MIN TEMP:  60; 6HR MAX TEMP:  65;

JOPLIN         CLEAR     67  65  93 SE5       30.01R
6HR MIN TEMP:  64; 6HR MAX TEMP:  68;

BRANSON        PTCLDY    66  66 100 SW5       30.04R

$$
MOZ032>034-039>042-045>050-055>058-069>072-181300-
...CENTRAL MISSOURI...

CITY           SKY/WX    TMP DP  RH WIND       PRES   REMARKS
COLUMBIA       CLEAR     63  61  93 W3        29.97R
6HR MIN TEMP:  61; 6HR MAX TEMP:  67;

JEFFERSON CITY CLEAR     61  61 100 CALM      29.96R FOG
6HR MIN TEMP:  60; 6HR MAX TEMP:  67;

ROLLA          CLEAR     61  61 100 SW6       29.99R
6HR MIN TEMP:  59; 6HR MAX TEMP:  67;

SEDALIA        CLEAR     64  64 100 SW5       30.00R
6HR MIN TEMP:  64; 6HR MAX TEMP:  68;

WHITEMAN AFB   MOCLDY    63  63 100 SW5       29.97R
WARRENSBURG    PTCLDY    61  59  94 CALM      29.98R
OSAGE BEACH    CLEAR     61  60  97 CALM      30.00R

$$
MOZ051-052-059>065-181300-
...EAST CENTRAL MISSOURI...

CITY           SKY/WX    TMP DP  RH WIND       PRES   REMARKS
ST LOUIS INTL  PTCLDY    68  64  87 W5        29.94R
6HR MIN TEMP:  67; 6HR MAX TEMP:  72;

SPIRIT OF STL  PTCLDY    64  63  96 W5        29.94R
6HR MIN TEMP:  63; 6HR MAX TEMP:  68;

ST CHARLES     CLEAR     64  62  93 CALM      29.92R
6HR MIN TEMP:  62; 6HR MAX TEMP:  70;


$$
MOZ072>076-082>087-097>100-106>115-181300-
...SOUTH CENTRAL AND SOUTHEAST MISSOURI...

CITY           SKY/WX    TMP DP  RH WIND       PRES   REMARKS
CAPE GIRARDEAU CLEAR     63  62  97 CALM      29.96R
6HR MIN TEMP:  61; 6HR MAX TEMP:  67;

FARMINGTON     CLEAR     65  61  87 CALM      29.98S
6HR MIN TEMP:  63; 6HR MAX TEMP:  69;

POPLAR BLUFF   PTCLDY    65  65 100 SW3       29.98R
6HR MIN TEMP:  64; 6HR MAX TEMP:  71;

WEST PLAINS    CLEAR     63  62  97 SW6       30.04R
6HR MIN TEMP:  62; 6HR MAX TEMP:  66;


$$


USA.gov is the U.S. government's official web portal to all federal, state and local government web resources and services.